Theta_e
303 304 304 304 305 305 305 306 304 305 304 305 305 305 305 305 306 302 297 303 299 292 293 295 296 292 292 292 290 291 293 295 295 291 291 292 293 296 295 300 297 295 290 290 289 286 288 308 305 299 303 306 310 311
303 303 303 303 304 304 304 306 305 305 305 305 305 305 305 306 305 304 297 303 305 295 290 295 296 297 296 295 296 293 292 295 300 297 296 295 292 295 294 291 302 295 297 293 294 294 303 308 307 309 308 307 311 310
301 302 303 303 303 303 304 304 306 305 304 304 303 305 306 306 305 303 300 301 299 291 289 288 290 296 298 301 300 290 298 299 299 302 299 299 288 295 292 293 299 301 303 298 298 301 302 306 307 310 312 311 313 313
300 301 302 302 303 303 304 304 304 305 306 306 306 307 307 306 305 304 299 301 297 293 286 287 297 293 298 303 301 301 299 301 302 302 298 297 293 296 293 296 298 301 303 299 298 301 304 305 307 311 311 313 314 316
300 300 300 301 302 303 303 303 304 304 306 306 307 306 306 306 305 301 300 300 301 293 287 287 292 296 299 302 302 303 302 301 299 298 296 292 300 298 297 296 294 299 300 298 296 302 302 305 309 312 313 313 314 314
300 300 300 300 302 302 303 303 303 304 304 305 306 306 306 305 303 299 291 296 302 299 289 283 291 296 298 300 300 300 302 302 301 299 297 300 304 302 296 295 302 304 306 306 304 307 307 311 313 314 313 314 315 316
301 299 300 300 301 302 303 303 303 304 303 304 305 305 305 304 301 295 292 299 301 299 292 285 289 293 295 299 299 299 302 300 301 300 299 300 300 302 298 294 300 306 306 308 309 307 305 310 308 313 314 313 314 317
299 299 299 300 301 302 302 303 303 304 304 303 303 303 303 303 300 293 301 304 301 298 295 286 287 290 296 295 292 299 295 297 297 298 298 296 299 298 295 301 303 306 307 308 309 307 307 311 311 311 310 311 310 313
299 299 299 300 301 301 302 302 303 304 304 304 304 303 298 295 291 293 306 305 302 297 289 289 286 285 295 295 295 296 295 290 297 295 295 294 292 293 299 301 302 302 302 303 308 308 308 308 311 311 309 307 308 311
300 300 300 300 301 301 302 302 303 303 304 304 300 296 289 293 304 303 296 291 290 290 293 289 293 289 292 294 293 292 295 291 288 293 299 290 289 295 299 303 303 303 305 305 304 303 303 303 307 308 307 310 312 312
301 300 300 300 301 301 302 301 302 303 303 296 294 292 295 303 295 293 285 283 285 283 289 288 290 287 296 291 290 294 290 291 284 291 292 289 289 294 299 303 304 304 306 307 307 306 304 303 307 307 308 309 310 311
301 300 300 300 301 301 301 302 302 295 293 294 294 296 296 293 287 284 282 286 283 281 288 288 291 292 293 297 291 292 289 291 285 294 289 287 295 299 300 303 304 303 304 304 306 306 306 305 306 305 305 306 307 307
301 301 301 300 301 302 301 302 303 302 301 297 296 291 287 284 277 280 280 282 282 288 289 290 289 293 294 295 290 289 287 287 295 284 286 292 297 299 299 303 303 304 304 304 303 304 306 306 306 305 304 306 307 306
303 303 302 302 302 302 302 302 303 300 296 288 285 281 279 282 285 286 285 287 290 290 290 289 287 290 293 289 290 287 291 293 286 282 284 293 297 300 300 301 304 301 302 303 304 303 303 304 304 306 306 306 307 307
304 303 303 301 302 302 302 303 302 297 294 289 287 283 285 290 292 291 292 291 293 293 290 288 289 289 287 288 290 289 286 283 287 288 293 294 298 300 300 300 300 301 300 301 303 307 306 306 305 305 305 304 306 308
304 302 298 302 302 302 302 301 298 297 294 292 289 286 290 286 286 289 290 291 294 294 293 291 287 284 284 287 285 284 284 285 289 294 295 297 299 300 301 302 303 305 305 305 308 307 306 305 304 306 309 306 306 308
302 294 301 302 302 302 302 296 296 294 292 289 288 291 289 289 290 288 289 290 295 291 285 289 282 283 288 284 284 289 288 290 294 296 297 300 297 300 301 303 303 305 305 306 307 307 306 305 302 300 299 301 302 302
295 298 302 303 302 299 297 296 292 289 287 289 288 288 290 290 289 292 293 294 292 290 290 286 290 283 282 283 285 291 294 295 296 297 297 299 300 302 302 300 302 302 303 303 303 302 304 302 299 298 297 299 298 298
298 299 301 302 300 296 292 294 292 284 289 291 293 292 291 291 292 293 293 294 295 294 292 289 286 284 284 290 291 291 291 293 293 296 300 301 302 303 302 301 302 300 301 301 299 298 299 300 298 298 298 298 297 296
301 302 302 303 302 294 293 289 296 287 283 288 294 291 289 289 292 293 293 293 291 291 287 285 288 289 289 291 293 293 293 294 295 294 296 297 301 302 300 300 299 299 299 300 299 296 298 300 300 297 297 296 298 298
300 302 302 301 298 296 295 293 290 287 288 288 293 291 288 289 289 291 291 293 289 284 285 290 290 292 294 294 294 294 297 296 294 295 295 296 299 300 301 301 302 299 298 299 298 295 296 297 299 299 298 295 294 294
299 302 298 300 294 294 289 296 291 292 290 291 290 291 285 282 284 289 292 289 288 290 290 291 292 294 293 293 294 295 295 296 296 295 295 296 298 296 297 298 299 299 300 301 301 299 297 296 296 298 297 298 298 297
301 299 294 296 289 285 285 294 288 288 285 286 286 284 284 281 288 292 284 289 289 292 291 290 292 292 292 295 296 296 296 295 293 294 296 297 297 296 298 298 299 299 300 300 302 301 300 294 296 298 298 297 297 295
301 294 289 284 289 281 288 285 282 283 282 281 280 283 283 284 289 286 285 288 290 292 292 292 294 293 293 293 293 294 295 294 294 295 295 297 295 296 298 298 298 300 300 302 301 301 300 299 296 298 297 297 296 296
282 280 281 275 284 286 283 283 284 282 283 282 282 281 282 285 281 285 287 288 291 293 292 292 292 292 291 294 293 293 295 293 294 293 294 295 296 295 295 297 299 299 300 300 300 301 300 299 299 299 299 298 296 296
278 279 285 286 284 282 284 282 283 284 286 282 281 283 281 281 283 283 287 290 289 291 292 292 293 293 292 295 294 293 293 293 294 292 293 296 296 295 294 294 294 297 300 300 300 300 299 299 299 301 301 299 292 299
277 278 286 291 282 287 283 285 284 279 283 283 283 283 279 279 283 287 292 292 292 293 296 295 295 295 295 295 296 296 297 298 295 294 294 295 297 297 296 295 296 297 301 302 302 301 299 298 298 298 299 301 301 301
282 284 281 280 283 280 283 281 282 282 285 290 287 284 284 286 285 292 294 297 298 298 297 297 299 298 298 297 298 298 299 299 298 298 297 298 299 300 300 300 299 290 298 299 302 302 299 298 298 299 299 299 300 303
282 283 286 281 281 281 281 283 285 289 291 290 285 283 288 292 295 294 295 299 300 299 293 293 296 297 298 299 299 299 298 296 294 292 290 290 292 294 296 298 299 300 300 297 286 293 299 299 298 298 299 299 302 302
283 288 281 282 281 280 283 286 285 287 288 288 288 288 288 291 293 295 296 295 292 290 292 292 293 296 295 295 294 295 296 295 294 293 291 289 290 292 293 294 296 298 299 298 297 295 288 295 295 299 297 294 290 289
286 285 282 280 282 284 285 286 286 285 285 285 287 284 286 290 292 291 291 290 290 291 290 290 291 292 290 290 289 289 290 290 290 290 290 290 289 289 290 292 295 297 297 297 298 297 296 296 294 294 293 290 289 287
284 283 281 280 279 283 286 283 282 282 283 283 283 285 286 286 287 287 288 288 288 287 287 289 288 287 289 289 290 290 288 289 287 287 287 287 287 288 288 292 295 296 297 297 297 293 290 292 286 290 291 293 292 292
279 282 281 280 275 277 282 281 277 279 279 274 283 284 284 283 283 287 289 289 287 287 288 289 289 287 287 287 288 287 286 287 284 283 285 283 283 284 288 290 291 290 289 288 287 288 288 287 287 290 290 290 290 291
Wind_Speed
28 29 29 30 30 31 32 21 11 9 3 4 8 13 13 14 17 5 2 4 1 3 3 1 1 2 3 1 1 4 2 3 2 3 5 6 5 9 6 7 9 7 6 4 4 4 5 9 4 12 11 4 7 5
27 27 28 27 27 28 29 29 10 13 10 5 6 8 13 13 16 9 2 1 4 3 4 3 4 6 6 4 1 2 2 3 2 2 3 4 3 5 9 5 4 5 8 9 9 8 8 17 9 10 8 7 7 6
27 26 26 25 26 27 24 25 24 11 6 8 2 10 12 17 18 5 3 1 3 2 5 2 7 10 6 8 5 4 2 5 4 1 3 4 7 4 6 5 9 4 6 6 5 7 10 17 5 6 6 7 6 3
23 24 24 24 25 25 21 22 22 20 18 10 12 16 14 19 17 7 3 1 4 2 1 7 2 3 4 11 7 4 3 2 6 3 3 3 6 3 5 7 6 7 8 8 6 3 5 3 3 5 8 6 4 7
21 21 22 22 22 22 21 20 18 19 16 14 13 11 14 16 10 6 2 2 3 2 2 7 10 5 7 15 11 6 6 2 5 5 4 3 6 3 1 3 2 1 10 8 7 5 5 4 1 4 11 10 10 7
19 18 19 20 21 21 19 17 17 17 15 14 13 12 13 13 10 3 1 2 2 3 1 4 4 4 4 7 8 5 1 3 5 2 3 5 8 4 4 4 5 2 4 6 6 4 8 10 2 6 8 4 8 6
17 15 18 19 19 18 18 17 17 16 8 11 11 9 7 4 3 1 1 0 3 3 3 4 3 4 4 4 3 2 1 2 1 2 4 2 6 3 3 5 5 5 5 8 8 7 7 3 6 7 9 7 7 5
14 15 17 18 17 18 18 16 14 16 7 6 7 6 3 1 6 3 2 7 2 2 2 2 3 3 4 1 2 2 3 1 1 1 2 0 8 3 5 3 4 5 10 8 5 8 6 5 3 4 3 3 8 9
13 15 16 17 16 16 16 15 14 13 10 8 6 5 2 1 1 3 5 4 2 2 3 2 3 1 4 3 2 2 3 3 1 2 2 3 4 6 1 4 7 4 6 7 6 7 5 6 4 4 4 2 3 7
13 14 15 16 17 14 16 15 15 15 13 7 3 2 3 3 6 6 3 2 2 3 2 4 3 1 2 3 0 3 1 3 1 3 3 3 1 8 12 3 5 5 6 8 10 6 3 3 3 5 3 3 4 0
13 14 16 16 17 14 16 14 17 18 8 3 3 2 4 6 3 2 1 2 2 2 3 3 2 2 2 1 1 0 2 1 1 2 2 2 3 2 17 11 5 4 7 7 8 7 4 3 5 8 6 3 5 4
14 15 15 15 17 15 15 13 14 5 1 4 4 5 3 2 2 2 2 2 2 4 3 2 3 2 2 3 1 2 1 1 3 4 2 2 1 2 10 14 8 6 5 6 7 8 7 6 8 7 7 3 2 3
14 15 14 14 16 15 13 14 14 14 9 1 1 2 3 3 5 2 4 4 4 4 3 4 1 2 3 3 2 1 1 2 2 4 2 2 4 7 7 11 6 6 5 2 2 3 3 5 8 8 6 3 4 0
13 13 13 14 13 13 13 14 14 9 3 1 2 6 2 4 3 3 1 2 4 4 7 6 1 3 2 3 3 1 2 2 2 2 2 3 7 11 12 5 6 2 4 4 5 4 1 4 2 3 5 4 2 1
12 12 12 8 15 16 15 16 17 0 1 3 4 4 2 3 5 4 4 2 4 4 2 3 2 2 2 3 1 2 0 1 3 3 2 3 5 7 7 7 5 5 7 7 4 9 8 4 4 2 3 3 1 4
13 8 4 13 16 19 19 10 3 0 2 3 1 3 3 3 5 4 4 4 4 5 2 3 3 4 3 1 2 3 3 5 3 1 3 4 4 7 9 7 10 10 10 7 10 12 12 13 9 3 3 6 6 6
11 3 11 14 16 21 12 2 2 2 2 5 3 4 4 3 2 3 2 4 4 4 2 2 4 2 3 4 6 6 3 4 3 2 3 7 6 6 8 6 11 10 9 9 7 9 9 8 9 10 9 7 8 9
3 6 18 17 11 7 3 1 1 3 3 2 5 5 4 2 2 4 3 3 2 4 3 1 1 6 3 4 4 3 2 1 1 3 3 3 5 6 3 3 8 7 7 7 5 5 4 8 7 6 6 8 10 10
12 14 19 15 3 2 3 4 4 1 3 3 5 2 2 4 3 3 3 4 3 2 2 4 5 3 3 1 1 3 3 3 2 2 2 4 6 4 6 6 5 7 7 5 5 4 4 4 5 4 4 6 8 6
20 14 12 11 6 1 3 5 2 2 3 4 2 4 3 4 4 3 3 3 3 3 5 4 2 2 2 3 2 1 2 2 3 4 4 4 4 6 6 5 4 3 4 5 5 7 5 6 6 4 4 5 7 7
9 5 9 3 1 0 2 3 4 3 3 3 3 3 3 4 3 4 4 2 4 2 2 2 3 4 4 4 3 2 1 1 1 2 3 2 2 4 4 4 6 4 4 4 4 4 7 5 4 4 5 5 5 5
4 10 3 3 2 3 1 3 3 3 1 4 4 3 2 3 4 2 1 5 2 3 3 2 2 3 2 2 2 1 1 2 1 3 5 5 3 0 2 1 3 3 1 4 2 4 4 4 3 5 7 6 6 5
10 3 3 2 3 4 7 3 3 4 2 5 4 4 4 4 3 2 4 1 3 3 2 1 2 0 1 3 3 4 6 5 2 2 4 4 2 2 2 1 2 4 3 1 2 3 4 5 5 5 6 5 6 5
5 3 4 3 3 4 5 5 3 3 4 5 4 5 4 3 3 3 2 3 4 3 5 5 7 6 5 6 4 3 4 2 4 3 2 4 3 1 1 3 3 1 2 4 4 4 4 4 6 4 5 6 5 5
5 6 4 5 3 4 4 6 5 5 3 3 3 4 5 3 4 3 1 3 5 4 4 4 4 5 3 3 4 5 4 2 3 2 3 2 2 2 2 3 3 3 2 4 3 4 4 3 4 4 5 5 6 6
4 4 2 2 4 3 4 4 4 4 4 3 3 4 3 3 2 1 2 4 4 4 5 4 6 6 5 5 6 5 6 5 2 3 2 3 4 4 2 2 2 4 3 1 2 4 4 4 4 5 2 4 8 9
3 3 3 2 2 2 4 4 3 1 4 5 5 6 4 3 4 4 4 4 4 4 3 2 3 6 3 5 5 3 4 8 4 3 2 2 3 2 2 1 2 3 4 4 5 6 7 6 6 5 5 4 5 2
5 1 2 5 3 0 2 3 3 5 4 4 5 5 5 6 3 4 2 8 8 6 4 3 3 6 8 5 6 6 7 8 8 7 5 6 5 7 7 4 3 6 4 4 3 4 4 4 5 5 4 4 5 7
2 3 2 4 3 2 2 1 3 2 2 3 2 3 3 4 5 4 2 3 6 4 1 3 3 4 5 7 8 7 7 6 11 15 14 9 8 7 11 8 4 2 3 4 4 1 3 4 4 4 5 2 3 5
4 2 3 2 2 3 4 1 3 3 3 3 3 4 4 2 3 4 3 3 3 4 4 5 5 5 4 8 7 7 8 9 9 8 6 6 6 8 9 9 9 5 4 1 3 3 5 4 3 4 3 3 2 3
2 2 1 2 3 3 4 4 3 3 3 4 3 2 5 3 2 5 8 4 5 8 8 7 8 7 8 8 6 5 5 8 10 12 9 5 6 8 8 8 8 7 4 1 3 4 4 2 3 4 6 4 2 3
0 2 2 3 4 5 4 4 4 3 3 3 4 3 3 2 3 3 5 4 7 8 8 7 7 8 7 7 7 8 10 6 7 8 10 8 8 9 9 8 8 8 9 10 5 1 5 7 4 4 6 7 9 9
1 1 2 2 4 5 5 1 4 4 3 3 5 6 4 4 4 4 2 5 5 5 6 7 7 7 9 9 9 7 7 6 5 6 9 8 10 9 6 7 8 10 11 9 9 9 7 3 4 8 9 9 10 11
Wind_Direction
353 357 358 0 0 2 4 26 27 52 105 191 161 165 162 164 172 144 157 97 271 171 284 359 44 122 339 117 176 311 339 277 270 152 187 238 173 186 145 161 160 142 133 148 95 104 228 162 115 169 207 178 170 170
351 356 357 360 3 3 5 15 32 29 39 89 145 175 174 167 194 161 120 298 228 91 236 234 234 231 202 213 101 329 300 232 48 223 313 279 222 149 145 190 203 166 173 159 165 200 217 190 190 217 178 166 186 186
349 353 355 2 2 2 6 9 19 28 28 72 6 279 176 164 149 126 104 34 62 53 310 7 246 236 214 175 176 131 305 6 340 352 285 270 263 132 150 203 153 236 130 137 119 212 211 198 200 187 165 197 170 182
346 350 353 357 359 2 7 10 11 18 36 57 76 97 125 119 120 105 87 299 83 86 285 277 332 283 181 155 167 172 191 51 266 211 258 267 285 210 177 160 134 175 149 157 206 232 98 88 148 173 218 224 307 122
343 346 352 352 357 358 2 6 11 15 24 47 67 110 134 144 94 75 69 47 84 80 307 287 309 260 181 170 175 188 197 132 251 173 235 277 269 337 22 100 69 144 170 177 202 178 130 153 184 171 192 208 211 172
341 344 350 354 354 358 7 12 22 18 22 43 64 78 102 116 116 86 328 304 157 143 303 291 292 302 70 153 163 215 208 121 294 163 161 264 261 318 78 75 300 6 100 140 161 170 114 123 46 81 117 180 237 210
342 348 350 354 355 360 5 9 3 8 38 55 64 73 110 93 49 3 244 166 121 143 247 294 297 307 305 178 179 207 203 129 290 308 177 248 291 291 138 132 229 134 103 93 114 114 73 66 133 152 150 147 171 180
354 351 352 353 358 0 5 8 10 13 67 53 56 61 70 358 314 342 296 215 139 238 275 271 287 314 343 65 232 198 124 246 45 13 69 283 296 268 65 300 237 98 86 57 69 77 133 148 163 77 55 27 108 117
349 347 350 351 349 349 358 2 10 12 12 15 357 325 338 11 312 250 290 147 204 224 310 275 284 354 348 241 205 166 184 65 59 288 210 191 295 53 177 209 90 76 104 130 116 95 101 87 94 21 306 248 175 135
341 345 349 349 347 346 353 356 360 350 326 314 336 314 325 246 264 339 355 63 7 269 241 256 142 282 213 212 67 49 241 155 137 230 216 122 303 267 317 295 120 114 120 122 100 78 25 17 210 335 42 27 98 1
349 348 351 350 350 354 352 357 350 339 355 13 337 324 259 294 25 289 296 110 247 291 241 243 133 144 271 276 205 22 221 189 143 251 225 139 87 352 297 272 195 141 108 83 98 131 132 85 114 112 104 134 108 153
350 352 353 349 349 349 352 347 349 10 285 259 280 288 293 336 343 25 233 283 205 249 261 172 198 104 256 241 93 332 15 300 176 141 85 59 21 170 212 225 178 131 99 122 142 136 117 102 110 96 109 161 159 139
342 344 344 340 340 344 345 340 338 328 316 6 264 278 51 284 13 29 343 334 327 327 315 324 254 66 332 16 60 2 78 255 17 41 138 59 303 326 323 184 136 178 194 241 293 298 316 168 138 139 149 194 160 269
333 333 330 331 336 334 331 324 327 335 310 21 15 331 80 322 15 317 318 274 267 273 293 308 343 129 200 47 266 18 307 62 18 52 65 326 341 335 357 72 91 70 348 275 263 260 245 216 165 177 134 146 87 52
319 320 330 329 331 327 322 324 324 199 349 26 7 355 308 312 266 254 267 308 281 266 291 344 4 128 154 160 195 298 44 65 42 43 350 322 310 312 7 8 72 58 51 44 34 46 24 62 78 278 284 269 216 263
337 342 326 329 324 320 315 325 332 269 3 24 143 320 278 332 320 352 323 307 297 323 328 27 354 22 341 68 106 263 76 26 56 60 282 289 1 11 21 14 49 47 53 52 60 58 43 29 4 314 296 255 249 244
340 315 301 313 320 318 319 64 333 24 29 352 315 277 249 238 223 261 277 285 310 4 5 20 36 280 312 27 22 12 74 206 181 217 21 6 349 350 356 19 50 59 56 51 54 64 75 57 38 32 18 345 76 71
264 290 310 309 338 324 312 145 2 24 358 305 317 290 296 254 272 290 272 276 359 330 10 337 66 32 30 28 9 313 342 351 95 176 212 232 258 288 296 54 63 56 61 55 46 38 14 96 80 46 25 48 65 69
290 297 294 296 294 332 328 301 102 346 255 219 261 274 299 284 273 265 291 312 252 242 47 31 48 6 328 351 201 316 349 37 36 80 32 340 340 78 47 57 75 74 69 67 62 57 53 53 83 67 51 63 67 53
305 297 294 307 154 55 309 300 69 90 291 259 296 302 287 274 283 311 317 339 9 47 35 61 234 250 233 276 285 295 350 342 60 62 26 7 8 16 16 98 85 63 67 36 57 65 69 79 53 47 64 71 90 84
315 299 338 133 98 186 255 333 317 210 290 316 279 346 291 333 359 354 324 13 53 49 6 238 236 265 274 271 266 27 351 142 98 129 149 63 344 40 26 32 73 37 57 42 78 67 67 80 93 84 78 66 64 68
272 334 326 321 351 333 334 242 207 258 27 273 320 342 335 343 318 305 181 46 331 268 204 229 229 238 302 359 330 338 319 337 46 104 67 102 73 358 92 9 66 67 8 86 54 104 96 85 78 103 100 101 94 88
301 351 318 305 9 23 269 19 2 317 5 301 354 2 339 328 274 12 31 279 266 276 288 336 329 145 332 339 32 20 10 17 62 163 127 126 116 128 97 352 18 96 86 338 148 123 124 125 102 107 105 98 109 100
322 15 346 338 334 292 337 318 335 349 352 2 356 322 312 270 321 59 26 346 285 334 23 1 53 25 356 359 11 338 334 342 53 50 128 121 86 47 59 350 347 5 165 163 159 135 141 153 140 118 120 127 129 128
47 324 58 330 324 341 330 327 318 21 329 289 339 317 310 20 37 25 40 329 343 335 352 350 27 70 40 301 326 316 314 26 93 71 338 137 125 79 47 46 32 40 67 102 161 163 161 158 138 143 142 148 155 156
51 285 77 319 317 28 337 325 319 316 286 289 290 282 9 44 61 34 325 328 342 351 339 354 34 64 10 330 303 329 339 337 87 88 328 103 139 137 97 18 357 325 355 88 126 131 141 158 144 142 113 193 184 169
15 320 302 293 171 316 323 292 298 45 349 12 349 320 2 356 34 338 341 339 11 323 302 356 72 78 61 359 340 336 28 33 11 270 253 206 62 43 107 174 255 279 349 45 89 126 130 132 135 155 150 133 124 128
228 257 325 289 330 100 265 291 327 21 19 357 337 323 357 16 33 288 307 329 312 318 317 350 65 83 73 38 356 15 24 31 354 24 54 55 50 40 10 11 12 69 59 37 92 126 138 154 145 151 142 133 110 85
276 269 62 354 325 332 266 226 21 214 243 163 205 264 276 205 187 235 293 259 300 224 124 58 30 55 42 64 57 33 34 39 49 44 33 19 357 352 345 343 339 354 116 93 41 115 162 155 150 113 82 134 154 119
269 150 115 221 218 250 257 287 269 272 300 262 256 304 309 3 10 353 5 33 13 34 47 44 40 58 51 58 59 59 45 39 33 54 29 13 341 317 322 332 335 322 3 113 146 107 56 110 98 51 35 61 80 91
251 3 73 168 232 245 262 277 288 288 272 270 280 254 266 161 131 30 25 18 38 48 39 42 45 39 47 41 34 40 65 40 28 32 29 356 338 325 324 325 331 331 328 324 194 205 172 171 172 144 101 84 226 213
192 198 174 229 271 268 297 268 251 244 266 263 267 256 284 336 103 66 343 23 46 39 17 43 64 46 32 29 36 51 66 67 51 30 13 357 346 336 331 335 342 351 351 350 331 25 201 181 168 165 167 202 218 214
256 203 235 261 327 314 278 289 305 286 273 235 244 240 212 156 141 129 83 29 65 54 48 71 64 53 49 42 39 40 41 45 51 44 17 359 354 352 357 4 2 4 3 360 1 11 10 313 220 226 223 233 222 206